Flag for Norway Weather past 2 weeks in Søgne, Norway

Now
46 °F

Cool.


Feels Like: 45 °F
Forecast: 45 / 54 °F
Wind: 3 mph from Southeast

Location: Oksoy Fyr

Current Time: May 30, 2015 at 1:40:10 AM

Latest Report: May 30, 2015 at 1:00 AM


Visibility: N/A

Pressure: 29.55 "Hg

Humidity: 90%

Dew point: 44 °F

Location of SøgneLocation

Historic Weather in Søgne — Graph

°F

Søgne temperature yesterday

Maximum temperature yesterday: 51 °F (at 5:00 PM)
Minimum temperature yesterday: 44 °F (at 6:00 AM)
Average temperature yesterday: 49 °F

Past Weeks' High & Low Weather Summary

 TemperatureHumidityPressure
High61 °F (May 26, 4:00 PM)97% (May 22, 2:00 PM)30.12 "Hg (May 22, 2:00 PM)
Low40 °F (May 18, 6:00 AM)35% (May 23, 7:00 PM)29.29 "Hg (May 19, 4:00 AM)
Average49 °F78%29.84 "Hg
* Reported Midnight between May 14 and May 15 — Midnight between May 29 and May 30, Søgne, Weather by CustomWeather, © 2015

Note: Actual official high and low records may vary slightly from our data, if they occured in-between our weather recording intervals... More about our weather records

Advertising

Søgne weather history for previous 24 hours

 ConditionsComfort  
Time TempWeatherWind HumidityBarometerVisibility
12:00 AM
Sat, May 30
47 °FCool.7 mph90%29.57 "HgN/A
10:00 PM
Fri, May 29
48 °FCool.2 mph83%29.59 "HgN/A
9:00 PM48 °FCool.2 mph80%29.61 "HgN/A
8:00 PM48 °FCool.3 mph78%29.61 "HgN/A
7:00 PM49 °FCool.3 mph76%29.62 "HgN/A
6:00 PM50 °FCool.5 mph76%29.63 "HgN/A
5:00 PM51 °FCool.7 mph76%29.64 "HgN/A
4:00 PM50 °FCool.7 mph78%29.65 "HgN/A
3:00 PM51 °FCool.10 mph74%29.65 "HgN/A
2:00 PM50 °FCool.12 mph76%29.64 "HgN/A
1:00 PM51 °FCool.6 mph76%29.65 "HgN/A
12:00 PM50 °FCool.10 mph74%29.65 "HgN/A
11:00 AM50 °FCool.9 mph78%29.65 "HgN/A
10:00 AM49 °FCool.6 mph82%29.63 "HgN/A
9:00 AM49 °FCool.6 mph83%29.63 "HgN/A
8:00 AM47 °FCool.6 mph85%29.63 "HgN/A
7:00 AM46 °FCool.6 mph88%29.62 "HgN/A
6:00 AM44 °FQuite cool.5 mph88%29.61 "HgN/A
5:00 AM47 °FCool.6 mph79%29.60 "HgN/A
4:00 AM48 °FCool.9 mph86%29.61 "HgN/A
3:00 AM48 °FCool.9 mph84%29.62 "HgN/A
2:00 AM48 °FCool.10 mph84%29.63 "HgN/A
Weather by CustomWeather, © 2015

See weather overviewHow to use our weather pages